TimeCDT,TemperatureF,Dew PointF,Humidity,Sea Level PressureIn,VisibilityMPH,Wind Direction,Wind SpeedMPH,Gust SpeedMPH,PrecipitationIn,Events,Conditions,WindDirDegrees,DateUTC
12:53 AM,28.0,21.0,75,30.34,10.0,SE,3.5,-,N/A,,Clear,140,2012-10-29 05:53:00
1:53 AM,27.0,19.9,75,30.34,10.0,SE,3.5,-,N/A,,Clear,140,2012-10-29 06:53:00
2:53 AM,25.0,18.0,75,30.34,10.0,Calm,Calm,-,N/A,,Clear,0,2012-10-29 07:53:00
3:53 AM,23.0,19.0,85,30.35,10.0,Calm,Calm,-,N/A,,Clear,0,2012-10-29 08:53:00
4:53 AM,23.0,19.0,85,30.34,10.0,SE,3.5,-,N/A,,Clear,130,2012-10-29 09:53:00
5:53 AM,26.1,18.0,71,30.35,10.0,SSE,3.5,-,N/A,,Clear,150,2012-10-29 10:53:00
6:53 AM,25.0,19.0,78,30.34,10.0,SSE,5.8,-,N/A,,Clear,150,2012-10-29 11:53:00
7:53 AM,30.0,21.9,72,30.35,10.0,SSE,5.8,-,N/A,,Clear,150,2012-10-29 12:53:00
8:53 AM,32.0,25.0,75,30.36,10.0,SSE,5.8,-,N/A,,Overcast,150,2012-10-29 13:53:00
9:53 AM,34.0,26.1,73,30.36,9.0,SSE,8.1,-,N/A,,Overcast,150,2012-10-29 14:53:00
10:53 AM,36.0,28.0,73,30.35,10.0,SSE,10.4,-,N/A,,Overcast,150,2012-10-29 15:53:00
11:53 AM,37.9,28.0,68,30.35,10.0,SSE,13.8,-,N/A,,Overcast,160,2012-10-29 16:53:00
12:53 PM,41.0,28.9,62,30.33,10.0,SSE,13.8,-,N/A,,Overcast,150,2012-10-29 17:53:00
1:53 PM,45.0,28.9,53,30.30,10.0,SE,15.0,-,N/A,,Overcast,140,2012-10-29 18:53:00
2:53 PM,46.4,28.4,50,30.26,10.0,SE,12.7,20.7,N/A,,Scattered Clouds,140,2012-10-29 19:53:00
3:53 PM,46.9,28.9,50,30.27,10.0,SE,12.7,-,N/A,,Mostly Cloudy,130,2012-10-29 20:53:00
4:53 PM,45.0,28.0,52,30.27,10.0,SE,11.5,-,N/A,,Overcast,130,2012-10-29 21:53:00
5:53 PM,44.1,27.0,51,30.26,10.0,SE,11.5,-,N/A,,Overcast,130,2012-10-29 22:53:00
6:53 PM,39.9,27.0,60,30.27,9.0,ESE,5.8,-,N/A,,Mostly Cloudy,110,2012-10-29 23:53:00
7:53 PM,36.0,27.0,70,30.27,8.0,East,6.9,-,N/A,,Scattered Clouds,100,2012-10-30 00:53:00
8:53 PM,34.0,27.0,75,30.27,10.0,ESE,5.8,-,N/A,,Partly Cloudy,110,2012-10-30 01:53:00
9:53 PM,33.1,26.1,75,30.26,9.0,ESE,3.5,-,N/A,,Scattered Clouds,110,2012-10-30 02:53:00
10:53 PM,28.9,24.1,82,30.25,10.0,Calm,Calm,-,N/A,,Clear,0,2012-10-30 03:53:00
11:53 PM,28.0,23.0,81,30.24,10.0,Calm,Calm,-,N/A,,Clear,0,2012-10-30 04:53:00